Weather History for PAEN - October, 2014

Change the Weather History Date:

Tuesday, October 7, 2014

  Actual Average Record
Temperature  
Mean Temperature 31 °F -  
Max Temperature 41 °F 46 °F 56 °F (1993)
Min Temperature 23 °F 33 °F 12 °F (1958)
Degree Days  
Heating Degree Days 34    
Moisture  
Dew Point 20 °F    
Average Humidity 70    
Maximum Humidity 92    
Minimum Humidity 33    
Precipitation  
Precipitation 0.00 in - - ()
Sea Level Pressure  
Sea Level Pressure 30.12 in    
Wind  
Wind Speed 4 mph (NNE)    
Max Wind Speed 10 mph    
Max Gust Speed -    
Visibility 10 miles    
Events      
Averages and records for this station are not official NWS values.
T = Trace of Precipitation, MM = Missing Value Source: NWS Daily Summary

Daily Weather History Graph

Daily Weather History Graph

Search for Another Location

Airport or City:

Trip Planner

Search our weather history database for the weather conditions in past years. The results will help you decide how hot, cold, wet, or windy it might be!

Date:

Astronomy

Oct. 07, 2014 Rise Set
Actual Time 8:26 AM AKDT 7:17 PM AKDT
Civil Twilight 7:43 AM AKDT 8:00 PM AKDT
Nautical Twilight 6:54 AM AKDT 8:49 PM AKDT
Astronomical Twilight 6:03 AM AKDT 9:39 PM AKDT
Moon 7:01 PM AKDT 7:25 AM AKDT
Length of Visible Light 12h 16m
Length of Day
10h 51m
Waxing Gibbous, 99% of the Moon is Illuminated
Oct 7
Waxing Gibbous
Oct 8
Full
Oct 15
Last Quarter
Oct 23
New
Oct 30
First Quarter

Hourly Weather History & Observations

Time (AKDT) Temp. Windchill Dew Point Humidity Pressure Visibility Wind Dir Wind Speed Gust Speed Precip Events Conditions
12:53 AM 25.0 °F 18.1 °F 19.9 °F 81% 30.14 in 10.0 mi NE 5.8 mph - N/A   Clear
1:53 AM 25.0 °F 20.7 °F 19.9 °F 81% 30.15 in 10.0 mi NNE 3.5 mph - N/A   Clear
2:53 AM 26.1 °F - 23.0 °F 88% 30.16 in 10.0 mi Calm Calm - N/A   Clear
3:53 AM 25.0 °F - 21.0 °F 85% 30.16 in 10.0 mi Calm Calm - N/A   Clear
4:53 AM 25.0 °F 20.7 °F 23.0 °F 92% 30.16 in 10.0 mi North 3.5 mph - N/A   Clear
5:53 AM 23.0 °F 18.4 °F 21.0 °F 92% 30.15 in 10.0 mi North 3.5 mph - N/A   Clear
6:53 AM 24.1 °F 18.2 °F 21.0 °F 88% 30.15 in 10.0 mi North 4.6 mph - N/A   Clear
7:53 AM 23.0 °F 18.4 °F 19.9 °F 88% 30.15 in 10.0 mi North 3.5 mph - N/A   Clear
8:53 AM 23.0 °F - 21.0 °F 92% 30.16 in 10.0 mi Calm Calm - N/A   Clear
9:53 AM 26.1 °F - 21.9 °F 84% 30.17 in 7.0 mi Calm Calm - N/A   Clear
10:53 AM 30.9 °F 26.2 °F 24.1 °F 76% 30.17 in 10.0 mi ENE 4.6 mph - N/A   Clear
11:53 AM 34.0 °F 28.0 °F 23.0 °F 64% 30.16 in 10.0 mi NE 6.9 mph - N/A   Clear
12:53 PM 37.0 °F 32.4 °F 21.0 °F 52% 30.15 in 10.0 mi North 5.8 mph - N/A   Clear
1:53 PM 37.9 °F 34.4 °F 21.0 °F 51% 30.14 in 10.0 mi North 4.6 mph - N/A   Clear
2:53 PM 39.9 °F 33.9 °F 18.0 °F 41% 30.13 in 10.0 mi North 9.2 mph - N/A   Clear
3:53 PM 39.9 °F 34.5 °F 18.0 °F 41% 30.11 in 10.0 mi North 8.1 mph - N/A   Clear
4:53 PM 39.9 °F 33.9 °F 12.9 °F 33% 30.09 in 10.0 mi NNE 9.2 mph - N/A   Clear
5:53 PM 37.9 °F 30.9 °F 14.0 °F 38% 30.08 in 10.0 mi NE 10.4 mph - N/A   Clear
6:53 PM 37.0 °F 34.5 °F 14.0 °F 39% 30.07 in 10.0 mi ENE 3.5 mph - N/A   Clear
7:53 PM 30.9 °F 27.5 °F 19.0 °F 61% 30.07 in 10.0 mi North 3.5 mph - N/A   Clear
8:53 PM 27.0 °F 23.0 °F 21.0 °F 78% 30.06 in 10.0 mi North 3.5 mph - N/A   Clear
9:53 PM 25.0 °F 20.7 °F 19.0 °F 78% 30.06 in 10.0 mi North 3.5 mph - N/A   Clear
10:53 PM 25.0 °F - 19.0 °F 78% 30.06 in 10.0 mi Calm Calm - N/A   Clear
11:53 PM 23.0 °F - 19.9 °F 88% 30.05 in 10.0 mi Calm Calm - N/A   Clear